This is the latest recevied weather packets stored in our database for station/object KN6WGU. If no packets are shown the sender has not sent any weather packets the latest 10 day(s).
| Time | Temp. | Humidity | Pressure | Rain* | Wind** | Luminosity | Snow |
|---|---|---|---|---|---|---|---|
| 1787963534 | 18.89° C | 74% | 1014.3 hPa | 0 mm | - | 0 W/m² | - |
| 1787963229 | 19.44° C | 73% | 1014.4 hPa | 0 mm | - | 0 W/m² | - |
| 1787962928 | 19.44° C | 72% | 1014.2 hPa | 0 mm | - | 0 W/m² | - |
| 1787962622 | 20° C | 71% | 1014.2 hPa | 0 mm | - | 1 W/m² | - |
| 1787962321 | 20° C | 71% | 1014.1 hPa | 0 mm | - | 2 W/m² | - |
| 1787962017 | 20.56° C | 68% | 1014 hPa | 0 mm | - | 3 W/m² | - |
| 1787961711 | 20.56° C | 67% | 1014.1 hPa | 0 mm | - | 4 W/m² | - |
| 1787961410 | 21.11° C | 66% | 1014 hPa | 0 mm | - | 6 W/m² | - |
| 1787961109 | 21.11° C | 63% | 1014.1 hPa | 0 mm | - | 8 W/m² | - |
| 1787960808 | 21.11° C | 62% | 1014 hPa | 0 mm | - | 11 W/m² | - |
| 1787960503 | 21.11° C | 61% | 1014.1 hPa | 0 mm | - | 14 W/m² | - |
| 1787960197 | 21.67° C | 63% | 1014.2 hPa | 0 mm | - | 16 W/m² | - |
| 1787959892 | 21.67° C | 63% | 1014.1 hPa | 0 mm | - | 18 W/m² | - |
| 1787959587 | 22.22° C | 62% | 1013.9 hPa | 0 mm | - | 20 W/m² | - |
| 1787959282 | 22.22° C | 61% | 1014 hPa | 0 mm | - | 22 W/m² | - |
| 1787958981 | 22.22° C | 60% | 1014.1 hPa | 0 mm | - | 23 W/m² | - |
| 1787958677 | 22.78° C | 59% | 1014.2 hPa | 0 mm | - | 25 W/m² | - |
| 1787958372 | 22.78° C | 55% | 1014.1 hPa | 0 mm | - | 27 W/m² | - |
| 1787958069 | 23.33° C | 55% | 1014.3 hPa | 0 mm | - | 45 W/m² | - |
| 1787957767 | 23.33° C | 56% | 1014.1 hPa | 0 mm | - | 59 W/m² | - |
| 1787957462 | 23.33° C | 55% | 1014.3 hPa | 0 mm | - | 63 W/m² | - |
| 1787957162 | 22.78° C | 53% | 1014.4 hPa | 0 mm | - | 59 W/m² | - |
| 1787956862 | 22.78° C | 59% | 1014.3 hPa | 0 mm | - | 31 W/m² | - |
| 1787956556 | 22.78° C | 58% | 1014.4 hPa | 0 mm | - | 36 W/m² | - |
| 1787956251 | 22.78° C | 55% | 1014.1 hPa | 0 mm | - | 33 W/m² | - |
* Rain latest hour (hover to see other rain measurements)
** Current wind speed in m/s (hover to see current wind gust speed)